AirNav   Duncan Aviation - Near you to keep you flying
 
 967 users online  

03OK Sahoma Lake Airport
Sapulpa, Oklahoma, USA

GOING TO SAPULPA?


FAA INFORMATION EFFECTIVE 03 NOVEMBER 2022

Location

FAA Identifier: 03OK
Lat/Long: 36-02-28.3100N 096-09-41.0000W
36-02.471833N 096-09.683333W
36.0411972,-96.1613889
(estimated)
Elevation: 890 ft. / 271 m (estimated)
Variation: 06E (1990)
From city: 5 miles SE of SAPULPA, OK
Time zone: UTC -6 (UTC -5 during Daylight Saving Time)
Zip code: 74066

Airport Operations

Airport use: Private use. Permission required prior to landing
Activation date: 02/1993
Control tower: no
ARTCC: KANSAS CITY CENTER
FSS: MC ALESTER FLIGHT SERVICE STATION
Attendance: UNATNDD
Segmented circle: no

Airport Communications

WX AWOS-3 at OWP (8 nm N): 118.325 (918-246-2635)
WX ASOS at RVS (9 nm E): 126.5 (918-299-0740)
WX ASOS at TUL (16 nm NE): PHONE 918-831-6772

Nearby radio navigation aids

VOR radial/distance  VOR name  Freq  Var
TULr235/20.3TULSA VORTAC114.4008E
OKMr317/25.4OKMULGEE VOR/DME114.9008E

 
NDB name  Hdg/Dist  Freq  Var  ID
OILLR253/13.633803ETU - ..-
HENRYETTA345/38.926704EHET .... . -

Airport Services

Runway Information

Runway 18/36

Dimensions: 1200 x 50 ft. / 366 x 15 m
Surface: turf
RUNWAY 18  RUNWAY 36
Traffic pattern: leftleft
Obstructions: 50 ft. pline, 1400 ft. from runwaynone

Airport Ownership and Management from official FAA records

Ownership: Privately-owned
Owner: DAN L. HUDSON
740 N. ROSS
SAPULPA, OK 74066
Phone 918-224-7884

Additional Remarks

FOR CD CTC TULSA APCH AT 918-831-6714/6720.

Instrument Procedures

There are no published instrument procedures at 03OK.

Some nearby airports with instrument procedures:

KOWP - William R Pogue Municipal Airport (8 nm N)
KRVS - Tulsa Riverside Airport (9 nm E)
KTUL - Tulsa International Airport (16 nm NE)
3F7 - Jones Memorial Airport (19 nm SW)
KOKM - Okmulgee Regional Airport (25 nm SE)
 
Loc | Ops | Rwys | IFR | FBO | Links
Com | Nav | Svcs | Stats | Notes
Area around 03OK (Sahoma Lake Airport)
 
Road maps at: MapQuest Bing Google
 
Aerial photo
No photo
 
Sectional chart

 
Airport distance calculator
Flying to Sahoma Lake Airport? Find the distance to fly.

From to 03OK

Sunrise and sunset
Times for 29-Nov-2022
 Local
(UTC-6)
 Zulu
(UTC)
Morning civil twilight06:4812:48
Sunrise07:1613:16
Sunset17:1023:10
Evening civil twilight17:3823:38

Current date and time
Zulu (UTC)  30-Nov-2022 01:39:51
Local (UTC-6)  29-Nov-2022 19:39:51
 
METAR
KOWP 
8nm N 
300115Z AUTO 34006G19KT 10SM OVC025 04/M01 A3003 RMK AO2 T00401015
KRVS 
9nm E 
300053Z 34010G21KT 10SM FEW030 04/M02 A2997 RMK AO2 SLP152 T00441017
KTUL 
17nm NE 
300112Z 32016G25KT 10SM BKN025 03/M02 A2999 RMK AO2 T00331022
TAF
KRVS 
9nm E 
291959Z 2920/3018 30013G23KT P6SM SKC FM292300 31013G22KT P6SM SCT030 FM300200 33012G20KT P6SM BKN120 FM300600 35007KT P6SM SKC
KTUL 
17nm NE 
291959Z 2920/3018 31019G28KT P6SM SKC FM292300 32018G27KT P6SM SCT030 FM300200 33015G25KT P6SM BKN120 FM300600 34010KT P6SM SKC
NOTAMs
Click for the latest NOTAMs
NOTAMs are issued by the DoD/FAA and will open in a separate window not controlled by AirNav.

 

 
 

Would you like to see your business listed on this page?

 If your business provides an interesting product or service to pilots, flight crews, aircraft, or users of the Sahoma Lake Airport, you should consider listing it here.  To start the listing process, click on the button below
 
Add a business
 

Other Pages about Sahoma Lake Airport

Update a link
 
Copyright © AirNav, LLC. All rights reserved. Privacy Policy  Contact